Probability
0 0 0 0 0 0 0 0 0 0 0 0 2 6 12 18 27 38 47 54 61 60 52 52 54 54 56 58 56 53 52 45 34 25 19 15 12 8 5 3 2 1 0 0
0 0 0 0 0 0 0 0 0 0 0 1 2 5 10 16 24 34 45 54 60 59 54 54 57 58 57 57 54 52 49 43 33 24 18 14 11 7 4 3 2 1 0 1
0 0 0 0 0 0 0 0 0 0 0 1 2 3 6 12 19 30 43 53 58 58 55 56 59 59 56 51 48 45 42 35 28 22 17 13 9 6 4 3 2 2 1 1
0 0 0 0 0 0 0 0 0 0 0 0 1 1 3 9 17 29 42 51 55 56 55 55 56 56 52 45 40 37 33 28 24 21 18 13 8 5 4 4 4 3 1 1
0 0 0 0 0 0 0 0 0 0 0 0 0 0 1 6 15 29 41 48 51 53 52 51 52 53 49 41 34 31 27 24 22 21 18 12 7 3 2 3 5 4 2 1
0 0 0 0 0 0 0 0 0 0 0 0 0 0 0 3 12 26 38 43 45 49 49 49 50 50 47 39 31 27 25 23 21 19 16 11 5 2 1 1 3 4 3 1
0 0 0 0 0 0 0 0 0 0 0 0 0 0 0 2 10 22 32 36 39 42 44 46 48 47 44 39 32 26 25 23 19 17 15 10 5 1 0 0 1 2 2 1
0 0 0 0 0 0 0 0 0 0 0 0 0 0 0 4 12 19 25 28 31 32 33 38 42 42 40 37 32 28 26 22 17 14 13 9 5 2 0 0 0 1 1 0
0 0 0 0 0 0 0 0 0 0 0 0 0 0 1 7 15 18 19 22 23 23 25 28 32 33 31 28 28 26 24 20 15 11 9 6 3 2 0 0 0 0 0 0
0 0 0 0 0 0 0 0 0 0 0 0 0 0 2 9 14 15 15 17 18 19 21 22 22 22 21 19 20 20 17 15 12 8 5 3 1 1 0 0 0 0 0 0
0 0 0 0 0 0 0 0 0 0 0 0 0 0 3 7 11 14 16 17 16 17 19 19 17 16 15 13 12 11 10 8 7 5 3 1 0 0 0 0 0 0 0 0
0 0 0 0 0 0 0 0 0 0 0 0 0 1 3 6 11 17 22 22 19 19 19 17 15 13 11 9 6 5 4 3 3 3 2 1 0 0 0 0 0 0 0 0
0 0 0 0 0 0 0 0 0 0 0 0 0 1 5 9 15 24 30 28 25 23 21 18 13 10 7 4 2 2 1 1 2 2 1 0 0 0 1 1 0 0 0 0
0 0 0 0 0 0 0 0 0 0 0 0 1 3 6 13 22 31 35 33 29 26 22 17 11 7 5 2 1 1 1 2 2 2 1 1 1 1 2 2 1 0 0 1
0 0 0 0 0 0 0 0 0 0 0 0 2 5 9 17 27 36 41 38 32 28 23 16 9 6 4 2 2 3 5 4 3 3 3 5 5 4 4 3 1 1 2 3
0 0 0 0 0 0 0 1 1 0 0 2 7 11 15 23 32 40 43 40 33 27 22 16 9 5 3 2 3 5 7 6 5 5 6 7 7 6 5 4 3 3 3 4
0 0 0 0 0 0 0 1 2 1 2 5 11 19 26 32 35 38 38 35 29 23 19 13 7 4 2 2 3 5 6 5 4 5 6 5 6 6 6 6 5 4 4 5
0 0 0 0 0 0 1 2 3 4 6 9 17 27 36 38 37 33 31 28 24 19 15 11 5 2 2 2 3 4 4 3 2 2 3 3 3 4 5 6 5 5 5 4
0 0 0 0 0 0 1 2 3 8 13 16 23 33 40 42 41 34 28 26 23 19 15 9 4 2 2 2 3 3 3 3 1 0 1 1 1 2 4 4 3 3 3 3
0 0 0 0 0 0 2 3 5 10 16 20 26 33 38 41 41 36 30 27 24 21 15 8 4 3 2 2 3 3 3 3 2 1 0 0 0 1 1 1 1 1 1 1
0 0 0 0 0 0 2 5 6 8 14 21 26 29 33 37 36 33 30 27 24 19 13 7 6 5 3 2 3 3 3 4 3 2 0 0 0 0 0 0 0 0 0 0
0 0 0 0 0 0 2 5 8 11 18 25 28 30 33 36 34 29 25 23 19 16 11 8 8 7 4 3 3 2 3 3 4 3 1 0 0 0 0 0 0 0 0 0
0 0 1 3 4 6 8 11 15 20 25 29 32 34 35 34 30 24 19 16 15 13 11 11 9 7 4 4 4 2 2 3 3 3 2 0 0 0 0 0 0 0 0 0
0 1 4 7 10 14 18 19 20 23 25 27 31 34 33 27 22 18 14 13 12 12 11 11 9 7 4 3 3 2 2 3 3 1 1 0 0 0 0 0 0 0 0 0
1 2 4 7 10 15 19 19 20 20 22 25 28 29 26 20 17 14 13 12 12 11 10 8 7 6 4 3 2 2 3 3 2 1 0 0 0 0 0 0 0 0 0 0
0 1 2 4 6 10 14 16 17 17 19 23 26 24 20 16 15 13 12 11 11 10 8 6 6 6 5 3 2 2 3 3 1 0 0 0 0 0 0 0 0 0 0 0
Wind_Speed
2 2 5 8 8 8 6 8 11 12 8 1 2 4 5 8 8 9 8 10 11 11 9 10 12 13 12 11 11 11 11 10 8 6 5 5 4 4 4 4 5 6 5 6
1 7 12 8 7 7 8 9 10 10 7 2 1 2 3 7 10 12 12 12 11 9 7 9 10 12 13 12 11 11 11 11 9 7 5 4 4 3 4 4 5 6 6 6
9 8 6 8 10 10 10 7 7 7 7 6 3 5 4 2 2 5 9 11 12 13 13 12 11 10 11 11 12 11 10 10 9 8 5 4 4 3 2 3 4 5 6 6
8 11 10 9 9 8 9 10 7 5 4 5 1 2 6 2 1 4 6 8 9 10 10 11 11 11 11 11 10 10 9 9 9 9 8 8 6 5 5 4 4 5 5 6
8 6 9 11 12 8 9 8 4 2 1 3 3 1 7 1 1 3 5 7 8 9 11 11 12 12 11 10 9 9 9 8 8 8 9 8 6 5 3 4 5 5 4 5
9 7 6 9 10 8 7 2 6 6 5 3 4 2 6 4 6 5 5 6 7 9 10 9 8 8 8 8 8 9 9 8 8 9 8 9 8 7 7 6 6 5 3 3
7 9 8 6 6 6 2 5 5 5 5 5 4 2 7 7 5 8 10 8 7 8 9 9 9 9 8 9 9 8 9 8 8 9 8 8 8 9 9 8 7 6 4 4
5 9 7 6 9 7 5 10 8 5 5 5 4 2 5 3 2 7 8 7 7 7 7 9 10 9 8 9 8 8 9 8 8 9 8 7 7 6 6 7 6 6 5 5
7 8 7 7 7 9 6 6 10 8 2 1 4 3 4 2 4 6 8 8 7 8 8 8 7 7 7 8 7 8 8 7 7 7 7 6 7 6 7 6 6 5 4 4
10 5 8 6 3 4 9 9 7 6 4 3 3 3 4 4 4 5 6 6 6 6 7 7 6 7 6 7 6 6 6 6 5 6 6 6 6 6 6 5 6 5 5 5
10 7 8 4 4 7 4 4 6 6 6 7 3 7 6 10 10 9 8 7 7 7 7 7 6 6 6 6 6 6 5 5 4 5 5 5 4 5 5 5 5 5 5 5
9 8 6 9 7 7 8 9 10 7 5 6 5 8 5 6 8 9 8 8 7 7 6 7 7 6 6 6 6 5 5 5 5 4 4 4 4 4 5 4 4 5 5 5
9 8 3 8 8 2 3 6 8 7 6 5 5 6 2 3 5 7 9 9 8 7 7 6 6 6 6 5 5 5 5 5 5 5 4 4 4 4 4 4 4 4 4 4
9 7 9 11 8 4 3 4 5 8 5 5 7 7 4 5 7 8 9 9 9 8 7 6 5 5 5 5 4 4 4 5 5 5 5 4 4 4 4 4 3 3 4 4
6 5 6 7 6 2 2 3 4 6 9 9 9 10 10 11 11 11 10 11 10 9 8 7 6 6 6 6 5 5 5 5 5 5 4 4 3 3 3 3 3 3 3 3
4 3 3 1 2 1 2 5 5 6 6 6 7 6 7 7 7 9 11 13 11 10 9 8 7 7 7 6 6 5 5 5 5 5 4 3 4 4 4 3 3 3 3 2
2 3 3 2 2 3 4 5 4 3 4 8 9 9 10 9 11 12 12 11 10 10 9 9 7 6 6 5 6 6 5 5 5 4 4 4 4 4 3 4 3 3 3 3
3 3 3 2 2 4 9 5 2 2 1 3 7 10 14 13 10 7 8 10 9 9 10 9 7 5 5 5 5 6 6 5 5 4 4 4 4 4 4 4 4 3 3 3
5 6 3 4 3 4 6 5 1 3 2 1 9 12 11 11 9 5 3 6 8 8 8 8 7 7 5 6 6 7 6 5 5 5 4 4 4 4 4 4 4 3 4 5
4 5 5 4 4 5 6 6 1 7 2 1 9 13 12 9 6 3 4 7 8 8 8 7 7 7 6 5 6 7 6 5 5 4 4 4 4 5 5 4 4 4 5 6
3 3 3 4 3 5 5 6 3 5 6 3 7 10 8 5 6 8 8 8 8 8 8 8 8 6 4 5 7 6 6 5 5 5 5 5 4 4 5 5 4 5 6 7
1 1 2 3 3 6 5 3 3 6 3 6 8 9 9 10 10 9 9 9 9 8 8 8 8 6 5 5 7 7 5 4 5 6 6 6 5 5 5 6 6 6 7 8
0 3 4 4 5 5 2 2 3 6 9 7 8 10 13 12 9 9 7 7 8 8 7 7 7 7 5 5 6 7 5 5 7 7 7 6 6 6 5 6 7 6 6 6
4 2 2 2 2 2 3 5 5 6 8 9 10 11 12 12 10 9 7 6 7 7 6 6 7 7 5 4 5 5 6 6 8 8 7 6 6 6 6 5 5 5 5 5
3 3 2 1 1 5 7 6 6 8 10 11 10 9 9 11 10 9 8 7 7 6 5 6 7 7 6 5 5 5 6 7 8 8 7 6 6 7 7 7 6 5 3 3
1 1 1 3 3 3 1 1 5 9 9 10 11 9 8 9 10 9 7 5 6 6 6 7 7 7 6 6 6 5 5 7 8 7 6 5 5 6 6 7 8 13 10 11
Wind_Direction
217 139 223 227 214 218 255 282 289 288 292 323 176 180 187 179 169 166 167 166 168 179 178 170 168 166 161 161 161 164 159 161 155 151 151 148 157 158 159 170 173 170 169 162
308 247 233 231 246 251 261 273 282 291 305 358 227 239 212 185 183 175 173 173 171 165 157 162 162 164 166 168 166 165 164 165 164 163 157 151 145 154 165 170 176 177 173 170
209 240 225 226 249 260 271 255 261 277 317 358 49 348 329 276 169 175 176 172 170 169 167 166 163 165 166 169 171 170 169 166 165 156 139 125 111 109 139 172 181 186 178 176
240 248 258 258 254 239 262 259 257 290 346 309 59 285 290 277 173 186 181 170 172 171 162 164 162 165 171 175 169 162 165 165 163 158 159 159 164 170 183 178 180 186 181 180
239 232 229 242 246 237 235 250 269 299 12 342 347 125 283 353 195 214 181 166 172 169 164 166 166 169 168 167 165 162 163 167 165 167 169 169 170 172 166 163 171 183 188 189
249 262 233 230 247 238 237 333 12 35 61 339 276 161 274 253 217 186 169 163 166 164 164 161 154 151 155 158 162 162 164 172 172 172 174 174 174 170 166 172 177 182 185 193
285 279 264 255 270 285 187 89 25 354 9 259 278 158 250 258 208 167 164 162 159 159 156 151 153 157 160 161 165 166 167 175 176 177 181 183 181 177 179 179 183 181 185 193
225 270 251 227 204 209 199 142 158 195 220 276 328 233 262 281 143 133 136 137 145 153 157 157 162 163 164 164 165 167 174 178 181 184 186 185 182 180 185 185 181 185 190 193
199 248 264 239 206 170 177 179 170 145 184 289 293 289 317 45 98 123 131 136 152 161 160 159 159 156 160 163 169 174 175 177 181 183 179 182 185 184 185 185 180 184 185 186
179 245 280 270 237 213 175 162 107 123 163 236 275 252 224 197 168 150 144 152 156 157 157 152 155 159 159 161 164 167 168 175 174 175 178 180 182 182 180 176 179 184 187 184
176 200 280 333 200 203 170 151 134 137 155 159 220 261 231 187 177 166 159 159 150 153 157 150 147 149 146 145 148 152 155 156 159 163 168 167 173 174 171 177 182 182 182 178
178 164 238 257 252 206 181 182 154 158 208 165 169 259 267 184 168 158 150 149 146 150 150 148 145 139 137 141 144 148 152 153 158 154 146 151 155 160 169 177 179 174 175 178
160 142 192 316 326 318 192 185 169 146 138 156 163 252 275 148 140 149 147 146 144 142 139 141 139 138 140 143 143 147 152 152 147 141 139 141 150 159 170 173 168 169 173 177
143 133 166 198 216 224 229 220 169 134 158 193 198 204 218 178 160 156 151 151 146 144 140 139 137 129 129 133 138 146 151 146 143 141 144 150 160 165 166 156 153 161 166 168
114 149 177 198 207 199 224 242 206 181 184 182 204 189 200 190 175 164 153 145 141 143 145 145 141 137 136 139 143 139 137 139 141 139 145 160 161 145 137 137 141 137 145 164
51 129 143 227 236 257 286 277 250 221 194 179 159 188 194 170 150 151 153 150 151 156 156 148 145 146 152 157 153 139 137 137 134 138 143 142 138 134 132 134 137 132 130 131
19 89 103 241 316 36 284 250 236 233 198 166 177 192 162 152 161 164 159 156 160 160 151 145 151 155 158 159 148 144 146 134 130 133 131 126 126 123 125 133 128 134 142 133
133 93 124 141 77 221 246 257 205 168 255 187 161 156 158 156 152 145 150 150 152 154 148 147 153 155 152 142 132 130 128 128 127 121 120 123 126 127 122 116 121 127 123 120
145 136 121 122 162 266 292 306 218 137 351 89 138 140 138 123 90 68 108 132 142 145 144 146 150 146 141 138 134 128 129 131 128 126 126 130 133 128 124 125 123 116 111 105
84 111 121 128 153 215 248 287 295 100 32 296 137 142 143 124 123 178 143 120 117 118 125 128 128 120 127 135 134 131 135 133 133 132 131 123 123 128 127 127 119 111 110 105
16 53 130 157 189 246 264 302 38 119 206 190 138 144 141 133 148 144 128 115 114 115 115 121 119 115 125 131 126 129 131 136 136 125 117 109 107 113 116 112 106 109 108 104
183 150 179 150 176 244 299 14 124 183 156 115 115 119 111 109 111 118 121 119 118 114 112 117 116 112 108 117 123 125 128 132 123 118 113 107 102 102 105 109 104 105 110 108
128 195 194 179 205 248 300 119 134 134 115 109 111 116 118 115 119 120 122 123 119 117 116 115 115 111 101 106 119 124 124 120 116 112 110 106 100 94 100 111 112 109 108 112
316 350 76 54 350 346 45 79 83 96 103 106 111 115 118 120 120 116 116 117 114 110 111 112 112 109 103 100 102 113 117 117 115 113 110 107 106 97 88 92 99 108 115 119
299 346 27 67 329 28 30 46 78 87 93 96 98 104 113 119 117 118 118 116 113 110 107 109 115 115 113 105 100 106 117 118 113 113 112 107 103 105 94 84 73 84 78 120
264 203 172 219 233 149 181 26 92 97 101 107 105 97 99 108 111 108 105 105 108 109 109 108 107 110 112 108 103 104 114 121 121 117 116 116 117 113 108 104 83 61 71 76